Tracking 32968 objects as of 18-Jan-2026
HD Live streaming from Space Station
objects crossing your sky now

STARLINK-5823

Track STARLINK-5823 now!
10-day predictions
STARLINK-5823 is classified as:


NORAD ID: 55786
Int'l Code: 2023-028AX
Perigee: 573.4 km
Apogee: 581.3 km
Inclination: 70.0 °
Period: 96.1 minutes
Semi major axis: 6948 km
RCS: Unknown
Launch date: March 3, 2023
Source: United States (US)
Launch site: AIR FORCE WESTERN TEST RANGE (AFWTR)
Your satellite tracking list
Your tracking list is empty




NASA's NSSDC Master Catalog

Two Line Element Set (TLE):
1 55786U 23028AX  26017.61392211  .00082479  00000-0  67321-2 0  9998
2 55786  70.0018 333.3111 0005723 272.9481  87.1024 14.98932438159372
Source of the keplerian elements: AFSPC